EHI
0 0 0 0 0 0 0 0 0 0 0 0 0 0 0 0 0 0 0 0 0 0 0 0 0 0 0 0 0 0 0 0 0 0 0 0 0 0 0 0 0 0 0
0 0 0 0 0 0 0 0 0 0 0 0 0 0 0 0 0 0 0 0 0 0 0 0 0 0 0 0 0 0 0 0 0 0 0 0 0 0 0 0 0 0 0
0 0 0 0 0 0 0 0 0 0 0 0 0 0 0 0 0 0 0 0 0 0 0 0 0 0 0 0 0 0 0 0 0 0 0 0 0 0 0 0 0 0 0
0 0 0 0 0 0 0 0 0 0 0 0 0 0 0 0 0 0 0 0 0 0 0 0 0 0 0 0 0 0 0 0 0 0 0 0 0 0 0 0 0 0 0
0 0 0 0 0 0 0 0 0 0 0 0 0 0 0 0 0 0 0 0 0 0 0 0 0 0 0 0 0 0 0 0 0 0 0 0 0 0 0 0 0 0 0
0 0 0 0 0 0 0 0 0 0 0 0 0 0 0 0 0 0 0 0 0 0 0 0 0 0 0 0 0 0 0 0 0 0 0 0 0 0 0 0 0 0 0
0 0 0 0 0 0 0 0 0 0 0 0 0 0 0 0 0 0 0 0 0 0 0 0 0 0 0 0 0 0 0 0 0 0 0 0 0 0 0 0 0 0 0
0 0 0 0 0 0 0 0 0 0 0 0 0 0 0 0 0 0 0 0 0 0 0 0 0 0 0 0 0 0 0 0 0 0 0 0 0 0 0 0 0 0 0
0 0 0 0 0 0 0 0 0 0 0 0 0 0 0 0 0 0 0 0 0 0 0 0 0 0 0 0 0 0 0 0 0 0 0 0 0 0 0 0 0 0 0
0 0 0 0 0 0 0 0 0 0 0 0 0 0 0 0 0 0 0 0 0 0 0 0 0 0 0 0 0 0 0 0 0 0 0 0 0 0 0 0 0 0 0
0 0 0 0 0 0 0 0 0 0 0 0 0 0 0 0 0 0 0 0 0 0 0 0 0 0 0 0 0 0 0 0 0 0 0 0 0 0 0 0 0 0 0
0 0 0 0 0 0 0 0 0 0 0 0 0 0 0 0 0 0 0 0 0 0 0 0 0 0 0 0 0 0 0 0 0 0 0 0 0 0 0 0 0 0 0
0 0 0 0 0 0 0 0 0 0 0 0 0 0 0 0 0 0 0 0 0 0 0 0 0 0 0 0 0 0 0 0 0 0 0 0 0 0 0 0 0 0 0
0 0 0 0 0 0 0 0 0 0 0 0 0 0 0 0 0 0 0 0 0 0 0 0 0 0 0 0 0 0 0 0 0 0 0 0 0 0 0 0 0 0 0
0 0 0 0 0 0 0 0 0 0 0 0 0 0 0 0 0 0 0 0 0 0 0 0 0 0 0 0 0 0 0 0 0 0 0 0 0 0 0 0 0 0 0
0 0 0 0 0 0 0 0 0 0 0 0 0 0 0 0 0 0 0 0 0 0 0 0 0 0 0 0 0 0 0 0 0 0 0 0 0 0 0 0 0 0 0
0 0 0 0 0 0 0 0 0 0 0 0 0 0 0 0 0 0 0 0 0 0 0 0 0 0 0 0 0 0 0 0 0 0 0 0 0 0 0 0 0 0 0
0 0 0 0 0 0 0 0 0 0 0 0 0 0 0 0 0 0 0 0 0 0 0 0 0 0 0 0 0 0 0 0 0 0 0 0 0 0 0 0 0 0 0
0 0 0 0 0 0 0 0 0 0 0 0 0 0 0 0 0 0 0 0 0 0 0 0 0 0 0 0 0 0 0 0 0 0 0 0 0 0 0 0 0 0 0
0 0 0 0 0 0 0 0 0 0 0 0 0 0 0 0 0 0 0 0 0 0 0 0 0 0 0 0 0 0 0 0 0 0 0 0 0 0 0 0 0 0 0
0 0 0 0 0 0 0 0 0 0 0 0 0 0 0 0 0 0 0 0 0 0 0 0 0 0 0 0 0 0 0 0 0 0 0 0 0 0 0 0 0 0 0
0 0 0 0 0 0 0 0 0 0 0 0 0 0 0 0 0 0 0 0 0 0 0 0 0 0 0 0 0 0 0 0 0 0 0 0 0 0 0 0 0 0 0
0 0 0 0 0 0 0 0 0 0 0 0 0 0 0 0 0 0 0 0 0 0 0 0 0 0 0 0 0 0 0 0 0 0 0 0 0 0 0 0 0 0 0
0 0 0 0 0 0 0 0 0 0 0 0 0 0 0 0 0 0 0 0 0 0 0 0 0 0 0 0 0 0 0 0 0 0 0 0 0 0 0 0 0 0 0
0 0 0 0 0 0 0 0 0 0 0 0 0 0 0 0 0 0 0 0 0 0 0 0 0 0 0 0 0 0 0 0 0 0 0 0 0 0 0 0 0 0 0
0 0 0 0 0 0 0 0 0 0 0 0 0 0 0 0 0 0 0 0 0 0 0 0 0 0 0 0 0 0 0 0 0 0 0 0 0 0 0 0 0 0 0
Wind_Speed
4 4 4 4 4 4 4 4 4 4 4 4 4 4 5 5 4 4 5 5 5 5 5 5 6 5 5 4 5 5 5 5 7 7 6 6 8 8 7 7 7 8 7
3 4 4 3 3 4 3 4 4 4 4 4 5 5 5 5 5 5 5 6 6 6 6 6 6 5 6 5 5 5 5 6 6 8 7 6 8 8 8 8 7 7 7
3 3 3 3 3 3 3 3 4 4 4 4 4 5 5 5 5 5 6 6 7 7 7 7 7 6 7 5 6 5 5 5 5 6 7 6 6 6 7 7 8 7 7
2 3 3 3 3 3 3 3 4 4 4 4 4 5 5 5 5 6 6 6 7 7 7 7 7 7 7 7 6 6 5 5 6 6 6 6 6 6 6 6 6 6 6
2 2 3 2 2 3 3 3 3 4 4 4 5 5 5 5 5 6 6 7 7 7 7 7 7 8 9 8 6 6 6 5 5 6 6 6 6 5 5 5 6 7 7
2 3 2 2 3 3 3 3 3 4 4 5 5 5 6 5 7 9 8 7 7 7 7 7 7 7 8 10 10 10 9 8 7 7 7 7 8 7 6 6 6 7 7
2 2 2 2 3 3 3 3 4 4 4 5 5 6 6 7 9 10 10 7 6 6 7 7 6 6 8 7 8 10 10 11 12 9 9 9 9 8 8 8 8 8 8
2 2 2 2 2 3 3 4 4 4 4 5 5 6 6 7 9 10 9 7 6 7 7 7 7 8 7 8 8 8 8 8 9 8 8 9 8 8 8 8 9 9 9
2 2 2 2 3 3 3 4 4 4 4 5 5 6 6 7 9 9 9 5 6 7 7 8 8 8 10 11 9 8 8 7 8 10 11 11 12 12 10 7 7 7 7
3 3 2 3 3 4 4 4 4 4 4 4 5 5 6 6 9 10 9 5 5 6 6 7 9 10 10 11 8 7 8 7 7 7 8 9 9 9 10 8 7 7 6
2 2 3 3 3 4 4 3 3 3 4 4 5 5 5 7 8 9 8 5 5 5 5 5 6 9 11 11 10 7 8 8 7 7 6 6 6 5 5 6 6 7 7
2 2 3 3 3 3 3 3 3 3 4 4 4 4 4 5 6 6 8 8 7 6 5 5 5 9 11 11 8 8 10 9 5 5 5 5 5 5 5 5 6 7 7
2 2 3 3 2 3 3 3 3 3 3 3 3 4 3 3 4 7 8 9 9 6 5 7 9 10 9 6 6 8 7 5 5 5 5 5 5 5 5 5 6 6 7
3 2 2 2 3 3 3 3 3 3 4 4 4 4 4 4 3 4 4 5 6 6 5 6 8 7 6 6 6 5 4 4 5 5 5 5 5 5 5 4 5 5 5
3 2 2 3 3 3 3 3 4 4 5 5 4 3 4 4 5 7 5 4 4 4 4 3 3 3 3 3 3 4 4 4 4 4 4 4 4 4 4 4 5 5 5
3 2 2 2 2 2 3 3 5 6 7 8 7 6 5 7 9 8 8 8 7 6 4 3 3 4 4 4 4 4 4 4 4 4 4 5 5 5 5 4 5 5 6
4 3 3 3 3 3 3 3 3 4 5 6 7 7 7 7 8 7 7 7 6 5 3 3 4 4 4 4 4 4 4 4 4 4 5 5 4 4 5 5 5 5 6
4 4 4 3 3 3 3 3 3 3 3 3 4 6 6 7 7 6 6 5 4 3 3 4 4 4 4 4 4 4 5 4 4 4 5 5 4 5 5 5 5 6 6
4 3 3 3 3 3 3 3 3 4 3 3 3 3 5 6 6 6 5 3 3 4 4 4 4 4 4 4 4 4 5 5 5 5 5 5 5 5 5 5 5 8 7
4 5 4 3 3 3 3 3 3 3 3 3 3 3 3 4 3 3 3 3 4 4 4 4 4 4 4 4 5 4 5 5 5 5 5 5 5 5 6 7 6 6 6
3 3 4 4 3 3 3 3 3 3 3 4 4 4 6 4 4 4 4 4 4 4 4 4 4 5 5 4 5 5 6 5 5 5 5 5 5 5 6 6 6 6 6
3 3 3 3 3 3 3 3 3 4 4 4 4 4 6 4 3 4 4 4 4 4 4 4 5 5 5 5 5 5 6 6 5 5 5 5 5 6 6 6 6 6 6
3 3 3 3 3 4 4 3 3 4 4 4 4 4 3 4 4 4 4 4 4 4 4 4 5 5 5 5 5 6 6 6 6 6 6 6 6 6 6 7 8 8 8
3 3 3 3 3 3 3 3 4 4 4 4 4 4 4 4 4 5 5 5 5 5 5 5 5 7 8 7 6 6 6 6 6 6 8 8 7 7 6 7 7 8 8
2 3 3 3 3 3 3 4 4 4 4 4 4 4 4 4 5 5 5 5 5 5 6 6 5 6 8 9 8 7 9 12 11 8 7 7 8 8 7 8 7 8 8
2 2 2 3 3 3 3 4 4 4 4 4 4 4 4 5 5 5 5 5 5 5 6 6 7 8 9 8 10 11 13 13 13 13 8 6 7 7 7 7 8 8 8
Wind_Direction
184 186 188 190 194 202 210 218 223 225 223 225 231 239 242 240 241 246 252 255 250 251 253 255 259 262 264 263 258 255 255 255 265 279 284 288 290 292 295 295 296 294 293
182 184 183 184 192 206 216 225 229 232 233 234 236 239 244 244 244 246 250 251 250 250 252 253 256 258 260 260 258 258 259 259 260 273 282 285 289 291 292 292 293 292 292
180 183 184 191 197 213 227 233 236 237 239 241 241 243 246 248 249 250 250 250 250 252 251 252 253 254 257 259 260 261 262 264 263 267 277 282 285 286 291 290 290 289 289
180 187 194 206 214 221 231 237 239 240 242 246 248 250 250 251 252 253 251 249 251 255 256 254 252 253 256 260 262 262 264 267 266 266 271 276 280 288 286 291 294 294 293
190 200 208 219 225 228 233 238 243 244 247 250 251 254 253 252 249 252 252 253 257 259 259 260 259 259 263 264 264 264 265 265 268 267 270 274 277 284 284 289 289 294 291
199 212 217 222 222 229 238 243 246 247 250 251 251 253 254 253 255 259 261 259 260 259 262 263 264 263 265 267 272 273 270 265 265 268 270 272 277 281 284 281 283 287 286
212 216 217 224 227 234 244 247 249 254 256 255 257 256 257 259 261 264 265 263 259 258 259 261 261 263 269 266 271 272 270 269 267 268 270 274 278 279 279 280 279 281 281
219 226 227 231 239 242 243 247 253 256 255 258 259 260 264 265 267 268 268 262 262 260 258 259 262 264 263 268 269 268 267 266 268 268 269 273 275 277 276 278 279 278 278
227 238 242 237 240 245 246 250 257 259 258 257 259 260 265 271 268 267 272 261 260 261 259 258 259 262 265 268 269 269 270 272 273 273 274 277 276 277 277 275 272 270 273
246 254 255 247 241 245 250 254 258 257 259 263 264 264 265 269 269 269 271 259 260 261 259 258 259 261 266 268 265 268 270 276 279 279 276 276 275 273 273 267 268 268 273
263 259 257 256 251 247 248 250 250 256 262 262 263 266 265 265 271 271 268 262 258 262 264 263 262 265 269 272 273 267 270 281 281 277 277 277 277 272 270 270 270 264 265
266 262 263 263 261 248 242 247 248 248 254 259 262 269 267 268 273 273 272 271 271 267 268 270 270 275 278 279 276 275 281 283 280 278 275 274 277 278 281 282 280 273 268
259 263 269 269 262 251 243 243 245 243 246 253 259 268 277 279 277 278 280 280 276 272 269 271 276 281 286 281 277 283 285 276 272 273 277 280 282 283 284 284 283 279 275
254 261 264 263 263 257 250 243 243 243 247 250 256 265 275 279 280 280 276 278 278 273 272 273 276 280 278 279 284 283 275 270 270 271 277 283 285 282 278 282 283 282 279
254 262 265 261 260 259 258 253 252 250 251 259 258 259 266 274 279 288 289 283 282 278 284 275 269 269 268 272 276 279 278 274 270 270 273 278 280 281 282 284 281 280 275
249 254 257 259 261 262 264 272 267 268 269 271 271 273 272 276 286 287 290 292 293 291 282 263 264 266 268 273 276 277 275 273 273 273 272 273 276 280 284 285 281 274 274
247 253 253 252 253 258 260 264 277 281 277 275 276 280 282 288 290 290 294 295 287 285 274 268 268 269 271 272 272 272 274 276 275 270 271 273 274 274 277 278 278 277 275
254 253 254 251 252 255 258 259 263 270 279 281 280 280 285 290 293 290 290 291 280 275 272 272 273 274 273 274 274 272 273 274 270 267 269 270 272 273 273 272 273 275 278
254 252 253 256 257 259 259 256 257 261 267 277 286 282 285 291 289 286 285 273 273 273 274 274 273 274 274 273 274 272 272 272 271 269 268 269 269 268 268 269 269 273 275
251 256 261 258 257 258 255 252 254 258 262 265 269 278 285 286 280 282 280 272 267 269 271 272 272 270 270 270 271 270 270 270 272 270 268 268 268 266 265 266 267 268 270
254 249 259 262 255 254 254 255 256 257 262 268 270 272 279 278 274 276 275 271 268 268 270 272 272 270 268 268 267 265 265 268 270 271 271 270 269 266 265 265 265 266 270
254 252 253 254 253 252 254 254 255 257 259 265 272 276 283 282 277 279 277 276 275 273 272 271 271 270 267 266 265 264 263 264 265 266 266 265 264 264 265 264 265 267 268
253 257 256 253 252 254 258 254 252 254 259 263 267 271 274 274 275 276 278 281 282 280 277 272 270 270 269 269 265 261 260 261 263 263 263 264 264 263 264 264 265 267 267
261 259 257 257 255 251 252 255 256 258 260 264 266 268 270 272 274 276 278 278 279 279 276 273 270 270 274 277 273 266 261 265 265 259 257 256 259 262 262 264 266 267 267
266 261 258 257 256 256 257 259 261 262 264 265 267 269 271 273 273 275 276 276 278 277 279 279 273 274 275 276 276 273 269 271 271 266 258 256 258 259 263 265 267 270 271
274 269 266 263 261 261 261 263 265 268 268 268 268 269 270 272 273 275 277 276 278 279 280 278 274 276 279 277 275 275 274 274 274 271 266 259 258 259 261 262 266 267 270